HB9TUF-13 Weather Reports


time (UTC)temp
C
wind
direction
speed
KPH
gust
KPH
rain 1hr
cm
rain 24hr
cm
rain mn
cm
humidity
%
barometer
mb
20260507180701 15 133 0.0 0.0 0.00 0.38 0.00 100
20260507175118 15 136 0.0 0.0 0.00 0.38 0.00 100
20260507173534 16 135 0.0 0.0 0.00 0.43 0.00 100
20260507171951 16 135 0.0 0.0 0.00 0.43 0.00 100
20260507170408 17 135 0.0 0.0 0.00 0.46 0.00 100
20260507164824 18 135 0.0 0.0 0.00 0.48 0.00 100
20260507163242 18 135 0.0 0.0 0.00 0.48 0.00 100
20260507161659 20 135 0.0 0.0 0.00 0.51 0.00 100
20260507160116 20 135 0.0 0.0 0.00 0.53 0.00 100
20260507152950 22 134 0.0 0.0 0.00 0.58 0.00 100
20260507151407 21 133 0.0 0.0 0.00 0.56 0.00 100
20260507145824 21 133 0.0 0.0 0.00 0.56 0.00 100
20260507144241 20 132 0.0 0.0 0.00 0.53 0.00 100
20260507142658 21 132 0.0 0.0 0.00 0.56 0.00 100
20260507141115 20 132 0.0 0.0 0.00 0.53 0.00 100
20260507135532 20 132 0.0 0.0 0.00 0.53 0.00 100
20260507133949 21 132 0.0 0.0 0.00 0.56 0.00 100
20260507132406 20 134 0.0 0.0 0.00 0.53 0.00 100
20260507130823 15 135 0.0 0.0 0.00 0.41 0.00 100
20260507123656 20 134 0.0 0.0 0.00 0.53 0.00 100
20260507114945 15 135 0.0 0.0 0.00 0.41 0.00 100
20260507113402 15 135 0.0 0.0 0.00 0.38 0.00 100
20260507111818 16 135 0.0 0.0 0.00 0.43 0.00 100
20260507110234 15 135 0.0 0.0 0.00 0.41 0.00 100
20260507103106 13 136 0.0 0.0 0.00 0.36 0.00 100
20260507101523 13 136 0.0 0.0 0.00 0.36 0.00 100
20260507094355 12 137 0.0 0.0 0.00 0.33 0.00 100
20260507092811 13 137 0.0 0.0 0.00 0.36 0.00 100
20260507085644 12 142 0.0 0.0 0.00 0.33 0.00 100
20260507084059 11 143 0.0 0.0 0.00 0.30 0.00 100
20260507082515 11 143 0.0 0.0 0.00 0.30 0.00 100
20260507080931 10 144 0.0 0.0 0.00 0.28 0.00 100
20260507075346 10 144 0.0 0.0 0.00 0.28 0.00 100
20260507073801 10 144 0.0 0.0 0.00 0.25 0.00 100
20260507072216 10 141 0.0 0.0 0.00 0.25 0.00 100
20260507070632 10 138 0.0 0.0 0.00 0.25 0.00 100
20260507065047 10 138 0.0 0.0 0.00 0.25 0.00 100
20260507063502 8 137 0.0 0.0 0.00 0.23 0.00 100
20260507060331 8 130 0.0 0.0 0.00 0.23 0.00 100
20260507054746 8 131 0.0 0.0 0.00 0.23 0.00 100
20260507053201 8 128 0.0 0.0 0.00 0.23 0.00 100
20260507051616 8 126 0.0 0.0 0.00 0.23 0.00 100
20260507050031 7 125 0.0 0.0 0.00 0.20 0.00 100
20260507044445 7 125 0.0 0.0 0.00 0.20 0.00 100
20260507042900 7 124 0.0 0.0 0.00 0.20 0.00 100
20260507041315 7 124 0.0 0.0 0.00 0.20 0.00 100
20260507035730 7 124 0.0 0.0 0.00 0.20 0.00 100
20260507034145 7 124 0.0 0.0 0.00 0.20 0.00 100
20260507032559 7 124 0.0 0.0 0.00 0.20 0.00 100
20260507031014 7 124 0.0 0.0 0.00 0.20 0.00 100
20260507025429 7 125 0.0 0.0 0.00 0.20 0.00 100
20260507023843 7 125 0.0 0.0 0.00 0.20 0.00 100
20260507022258 7 125 0.0 0.0 0.00 0.20 0.00 100
20260507020713 7 125 0.0 0.0 0.00 0.20 0.00 100
20260507015127 7 125 0.0 0.0 0.00 0.20 0.00 100
20260507013542 7 125 0.0 0.0 0.00 0.20 0.00 100
20260507011957 7 125 0.0 0.0 0.00 0.20 0.00 100
20260507010411 7 125 0.0 0.0 0.00 0.20 0.00 100
20260507004826 7 125 0.0 0.0 0.00 0.20 0.00 100
20260507003240 6 125 0.0 0.0 0.00 0.18 0.00 100
20260507001655 6 125 0.0 0.0 0.00 0.18 0.00 100
20260507000109 6 125 0.0 0.0 0.00 0.18 0.00 100
20260506234524 6 125 0.0 0.0 0.00 0.18 0.00 100
20260506232939 5 125 0.0 0.0 0.00 0.15 0.00 100
20260506231353 6 125 0.0 0.0 0.00 0.18 0.00 100
20260506225807 6 125 0.0 0.0 0.00 0.18 0.00 100
20260506224222 6 126 0.0 0.0 0.00 0.18 0.00 100
20260506222637 6 126 0.0 0.0 0.00 0.18 0.00 100
20260506221051 6 126 0.0 0.0 0.00 0.18 0.00 100
20260506215506 6 126 0.0 0.0 0.00 0.18 0.00 100
20260506213921 7 126 0.0 0.0 0.00 0.20 0.00 100
20260506210750 7 126 0.0 0.0 0.00 0.20 0.00 100
20260506205205 7 126 0.0 0.0 0.00 0.20 0.00 100
20260506203619 7 126 0.0 0.0 0.00 0.20 0.00 100
20260506200449 7 127 0.0 0.0 0.00 0.20 0.00 100
20260506194904 7 127 0.0 0.0 0.00 0.20 0.00 100
20260506193319 8 127 0.0 0.0 0.00 0.23 0.00 100
20260506191734 8 127 0.0 0.0 0.00 0.23 0.00 100
20260506190149 10 127 0.0 0.0 0.00 0.25 0.00 100
20260506184604 10 127 0.0 0.0 0.00 0.25 0.00 100
20260506183020 10 128 0.0 0.0 0.00 0.25 0.00 100